Stations météo

réclame
Mon MeteoGroup
Niort, France (7330): Température de l'air & dewpoint: 17.09.2018 02:00:00 - 23.09.2018 02:00:00 (CEST)Niort, France (7330): Température de l'air 5cm: 17.09.2018 02:00:00 - 23.09.2018 02:00:00 (CEST)Niort, France (7330): Température de l'air -20cm & Température de l'air -100cm: 17.09.2018 02:00:00 - 23.09.2018 02:00:00 (CEST)Niort, France (7330): Vitesse du vent & gusts: 17.09.2018 02:00:00 - 23.09.2018 02:00:00 (CEST)Niort, France (7330): Direction du vent: 17.09.2018 02:00:00 - 23.09.2018 02:00:00 (CEST)Niort, France (7330): reduced air pressure: 17.09.2018 02:00:00 - 23.09.2018 02:00:00 (CEST)Niort, France (7330): visibility: 17.09.2018 02:00:00 - 23.09.2018 02:00:00 (CEST)Niort, France (7330): Ensoleillement: 17.09.2018 02:00:00 - 23.09.2018 02:00:00 (CEST)Niort, France (7330): Quantités de précipitations: 17.09.2018 02:00:00 - 23.09.2018 02:00:00 (CEST)
Date & Time tt [°C] td [°C] tt 5cm [°C] tt -20cm [°C] tt -100cm [°C] ff [km/h] ff [knt] fx [km/h] fx [knt] dd ppp [hPa] vv [km] sd [min] rr [mm]
23.09.2018 02:00:00 19,5 17,8 18,5 20,1 20,0 21 12 32 17 SW 1022,2 20 0 0,0
23.09.2018 01:00:00 19,6 18,1 18,7 20,1 20,0 21 11 32 17 WSW 1022,3 6 0 0,0
23.09.2018 00:00:00 19,6 17,6 19,3 20,1 20,0 16 9 29 15 SW 1022,3 20 0 0,0
22.09.2018 23:00:00 19,6 17,2 19,3 20,2 20,0 16 9 27 14 SSW 1022,4 20 0 0,0
22.09.2018 22:00:00 19,9 16,5 19,6 20,2 20,0 19 10 31 17 SW 1022,4 20 0 0,0
22.09.2018 21:00:00 20,1 16,3 19,8 20,2 20,0 23 13 35 19 SW 1022,1 20 0 0,0
22.09.2018 20:00:00 20,7 15,5 20,4 20,2 20,0 21 12 40 22 SW 1021,7 20 0 0,0
22.09.2018 19:00:00 21,4 14,5 21,4 20,3 20,0 18 10 39 21 SW 1021,4 20 4 0,0
22.09.2018 18:00:00 21,8 12,4 22,6 20,3 20,0 21 11 34 18 SW 1021,4 20 0 0,0
22.09.2018 17:00:00 21,8 8,3 22,7 20,3 20,0 20 11 39 21 SW 1022,0 20 2 0,0
22.09.2018 16:00:00 21,9 7,7 23,6 20,4 20,0 23 13 35 19 SSW 1022,3 20 28 0,0
22.09.2018 15:00:00 21,0 8,6 21,7 20,4 20,0 19 11 36 19 SSW 1022,8 20 27 0,0
22.09.2018 14:00:00 19,7 8,4 22,7 20,4 20,0 18 10 30 16 SSW 1023,7 20 37 0,0
22.09.2018 13:00:00 19,7 7,7 20,7 20,4 20,0 15 8 25 14 S 1024,0 20 49 0,0
22.09.2018 12:00:00 18,0 7,1 18,0 20,4 20,0 14 8 22 12 S 1024,2 20 28 0,0
22.09.2018 11:00:00 15,8 9,5 15,9 20,4 20,0 9 5 14 7 SSE 1024,3 20 16 0,0
22.09.2018 10:00:00 13,8 9,8 10,9 20,5 20,0 8 4 11 6 SE 1024,5 20 32 0,0
22.09.2018 09:00:00 10,2 9,1 7,5 20,5 20,0 5 3 8 4 E 1024,7 20 0 0,0
22.09.2018 08:00:00 8,7 7,8 6,7 20,5 20,1 8 4 10 5 ENE 1024,8 20 0 0,0
22.09.2018 07:00:00 9,4 8,2 7,8 20,5 20,0 2 1 8 4 ESE 1024,9 20 0 0,0
22.09.2018 06:00:00 9,6 8,5 7,0 20,5 20,0 6 3 11 6 SE 1024,4 20 0 0,0
22.09.2018 05:00:00 9,1 8,0 6,9 20,6 20,0 5 3 8 4 E 1024,7 20 0 0,0
22.09.2018 04:00:00 9,5 8,3 7,5 20,6 20,0 3 2 7 4 E 1025,2 20 0 0,0
22.09.2018 03:00:00 9,8 7,9 7,8 20,6 20,0 0 0 5 3 N 1025,2 20 0 0,0
22.09.2018 02:00:00 10,9 8,3 9,0 20,6 20,0 3 1 7 4 SSW 1025,5 20 0 0,0
22.09.2018 01:00:00 11,3 8,2 8,7 20,6 20,0 0 0 6 3 N 1025,8 20 0 0,0
22.09.2018 00:00:00 11,2 7,3 8,0 20,6 20,0 0 0 4 2 N 1025,6 20 0 0,0
21.09.2018 23:00:00 13,0 7,4 10,3 20,6 20,0 3 2 9 5 N 1024,7 20 0 0,0
21.09.2018 22:00:00 14,1 7,4 12,3 20,6 20,0 6 3 13 7 NNW 1024,7 20 0 0,0
21.09.2018 21:00:00 14,7 7,7 12,8 20,6 20,0 8 5 14 7 W 1023,7 20 0 0,0
21.09.2018 20:00:00 16,0 7,0 14,9 20,6 20,0 9 5 16 9 WNW 1022,9 20 0 0,0
21.09.2018 19:00:00 16,9 6,7 16,7 20,6 20,0 12 7 24 13 WNW 1022,6 20 0 0,0
21.09.2018 18:00:00 17,6 7,0 18,3 20,7 20,0 18 10 29 16 NW 1022,1 20 15 0,0
21.09.2018 17:00:00 18,2 8,2 19,5 20,6 20,0 19 10 31 17 WNW 1021,5 20 1 0,0
21.09.2018 16:00:00 18,7 10,3 20,1 20,7 20,0 18 10 33 18 NW 1021,0 20 0 0,0
21.09.2018 15:00:00 19,0 10,8 21,4 20,7 20,0 14 8 28 15 W 1020,6 20 34 0,0
21.09.2018 14:00:00 18,2 11,5 18,9 20,7 20,0 16 9 25 14 NW 1020,2 20 0 0,0
21.09.2018 13:00:00 17,3 12,0 16,6 20,7 20,0 11 6 26 14 NW 1019,6 20 0 0,0
21.09.2018 12:00:00 16,4 15,1 15,8 20,7 20,0 10 5 19 10 W 1019,3 18 0 0,0
21.09.2018 11:00:00 14,9 14,3 14,6 20,7 20,0 9 5 13 7 WSW 1018,6 20 0 0,4
21.09.2018 10:00:00 14,4 13,6 14,2 20,7 20,0 8 5 37 20 WNW 1017,3 10 0 2,0
21.09.2018 09:00:00 14,9 13,8 14,4 20,7 20,0 25 14 49 27 NW 1016,2 6 0 6,5
21.09.2018 08:00:00 18,9 17,6 18,0 20,7 20,0 26 14 40 22 SW 1014,3 2,7 0 0,2
21.09.2018 07:00:00 18,6 17,4 17,7 20,6 20,0 20 11 30 16 SSW 1013,9 13 0 0,0
21.09.2018 06:00:00 18,4 17,6 17,8 20,7 20,1 17 9 32 17 SW 1014,2 10 0 0,0
21.09.2018 05:00:00 18,2 17,6 16,7 20,6 20,0 17 9 29 16 SW 1014,4 9 0 0,0
21.09.2018 04:00:00 17,2 16,9 15,5 20,6 20,0 13 7 23 13 SW 1014,7 6 0 0,0
21.09.2018 03:00:00 16,4 16,1 14,9 20,6 20,0 10 5 15 8 SSW 1014,7 3,7 0 0,0
21.09.2018 02:00:00 15,7 15,1 14,3 20,6 20,0 11 6 14 8 SSW 1015,2 5 0 0,0
21.09.2018 01:00:00 16,0 15,2 13,2 20,6 20,0 9 5 12 7 SW 1015,5 10 0 0,0
21.09.2018 00:00:00 16,1 14,3 13,4 20,6 20,0 6 3 9 5 SW 1015,6 14 0 0,0
20.09.2018 23:00:00 17,3 14,4 15,2 20,6 20,1 5 3 11 6 SSW 1015,5 20 0 0,0
20.09.2018 22:00:00 18,8 15,1 17,3 20,6 20,0 7 4 12 6 WSW 1015,9 20 0 0,0
20.09.2018 21:00:00 20,2 15,2 19,0 20,6 20,0 9 5 25 13 W 1015,7 20 0 0,0
20.09.2018 20:00:00 21,5 15,1 20,8 20,6 20,0 16 9 27 15 W 1015,9 20 36 0,0
20.09.2018 19:00:00 23,6 15,1 24,4 20,6 20,1 19 11 30 16 W 1016,3 20 22 0,0
20.09.2018 18:00:00 25,5 15,2 26,6 20,6 20,0 21 12 29 16 W 1016,3 20 14 0,0
20.09.2018 17:00:00 27,1 15,1 28,4 20,6 20,0 16 9 29 15 SW 1016,6 20 54 0,0
20.09.2018 16:00:00 27,0 14,7 31,1 20,7 20,0 14 7 25 14 SW 1017,3 20 60 0,0
20.09.2018 15:00:00 26,2 14,3 30,9 20,7 20,1 11 6 26 14 SW 1018,2 20 58 0,0
20.09.2018 14:00:00 25,0 14,2 28,8 20,7 20,0 13 7 24 13 SW 1019,1 20 60 0,0
20.09.2018 13:00:00 24,3 14,7 27,9 20,6 20,0 14 7 24 13 SSW 1019,9 20 60 0,0
20.09.2018 12:00:00 22,6 14,7 23,0 20,6 20,0 9 5 18 10 WSW 1020,6 20 39 0,0
20.09.2018 11:00:00 21,7 15,8 20,9 20,7 20,1 6 3 11 6 SW 1021,0 20 60 0,0
20.09.2018 10:00:00 18,9 14,8 17,5 20,6 20,0 5 3 8 4 SSE 1021,0 17 57 0,0
20.09.2018 09:00:00 15,6 15,1 9,5 20,7 20,0 5 3 8 4 ESE 1021,1 9 38 0,0
20.09.2018 08:00:00 12,7 11,9 8,8 20,7 20,1 4 2 6 4 E 1021,2 1,7 0 0,0
20.09.2018 07:00:00 13,8 12,7 9,4 20,7 20,0 4 2 9 5 E 1021,1 5 0 0,0
20.09.2018 06:00:00 14,8 13,0 12,8 20,7 20,0 8 4 11 6 SE 1021,2 12 0 0,0
20.09.2018 05:00:00 16,4 13,5 14,7 20,7 20,0 6 3 10 5 SE 1021,5 14 0 0,0
20.09.2018 04:00:00 16,8 13,9 15,7 20,7 20,0 6 3 9 5 SE 1021,7 16 0 0,0
20.09.2018 03:00:00 16,3 14,3 15,2 20,7 20,0 2 1 6 3 ESE 1021,9 14 0 0,0
20.09.2018 02:00:00 15,1 14,0 10,9 20,7 20,0 2 1 4 2 SE 1022,1 14 0 0,0
20.09.2018 01:00:00 14,1 12,8 10,5 20,7 20,0 3 1 5 3 SE 1022,2 8 0 0,0
20.09.2018 00:00:00 16,8 14,6 12,0 20,6 20,0 3 2 10 6 W 1022,4 14 0 0,0
19.09.2018 23:00:00 18,0 14,9 14,9 20,7 20,0 7 4 12 6 W 1022,2 19 0 0,0
19.09.2018 22:00:00 18,8 14,5 15,9 20,7 20,1 9 5 14 7 W 1021,9 20 0 0,0
19.09.2018 21:00:00 20,1 14,5 18,5 20,6 20,0 10 5 21 11 W 1021,6 20 0 0,0
19.09.2018 20:00:00 21,7 14,1 20,8 20,6 20,0 14 8 25 13 W 1021,3 20 43 0,0
19.09.2018 19:00:00 23,5 13,7 24,5 20,7 20,0 16 9 30 16 W 1021,2 20 60 0,0
19.09.2018 18:00:00 24,6 14,1 - - - 18 10 29 16 WSW 1021,0 19 - 0,0
19.09.2018 17:00:00 24,9 13,8 26,5 20,7 20,1 15 8 32 17 W 1021,2 20 38 0,0
19.09.2018 16:00:00 24,8 13,0 27,4 20,7 20,0 18 10 52 28 W 1021,6 20 53 0,0
19.09.2018 15:00:00 24,1 13,9 25,8 20,7 20,0 19 10 32 17 W 1022,0 20 21 0,0
19.09.2018 14:00:00 23,6 14,6 25,0 20,7 20,0 23 13 34 18 W 1022,2 20 4 0,0
19.09.2018 13:00:00 23,6 14,6 25,4 20,7 20,1 17 9 31 17 W 1022,1 20 21 0,0
19.09.2018 12:00:00 23,3 15,4 24,8 20,7 20,0 14 7 29 16 WSW 1022,0 20 60 0,0
19.09.2018 11:00:00 21,9 15,3 21,1 20,7 20,0 10 5 19 10 SSW 1021,6 20 60 0,0
19.09.2018 10:00:00 18,9 16,5 16,2 20,7 20,0 13 7 19 11 SSE 1021,0 17 60 0,0
19.09.2018 09:00:00 15,7 15,4 11,0 20,7 20,0 9 5 14 7 SE 1021,0 8 48 0,0
19.09.2018 08:00:00 13,8 13,2 10,1 20,7 20,0 3 2 9 5 ESE 1020,7 4,4 0 0,0
19.09.2018 07:00:00 14,8 14,2 11,2 20,7 20,0 6 4 11 6 SE 1020,2 11 0 0,0
19.09.2018 06:00:00 14,1 13,3 10,9 20,7 20,1 4 2 7 4 SE 1019,9 11 0 0,0
19.09.2018 05:00:00 14,7 13,6 11,7 20,7 20,1 3 2 8 4 SE 1019,9 16 0 0,0
19.09.2018 04:00:00 15,5 13,7 12,7 20,6 20,0 3 1 6 3 S 1019,7 16 0 0,0
19.09.2018 03:00:00 16,8 14,3 15,3 20,6 20,0 5 3 6 3 S 1019,6 20 0 0,0
19.09.2018 02:00:00 18,6 16,0 17,8 20,6 20,1 4 2 13 7 W 1019,6 20 0 0,0
19.09.2018 01:00:00 18,9 15,9 17,0 20,6 20,0 9 5 15 8 W 1019,5 20 0 0,0
19.09.2018 00:00:00 19,3 15,4 17,6 20,6 20,0 7 4 13 7 WNW 1019,0 20 0 0,0
18.09.2018 23:00:00 19,8 15,4 17,7 20,6 20,0 10 6 17 9 WNW 1018,7 20 0 0,0
18.09.2018 22:00:00 20,3 15,3 18,9 20,6 20,0 8 4 13 7 WSW 1018,5 20 0 0,0
18.09.2018 21:00:00 22,1 15,2 20,7 20,6 20,0 10 5 18 10 W 1017,7 20 0 0,0
18.09.2018 20:00:00 23,1 15,2 22,3 20,5 20,0 15 8 24 13 WNW 1017,4 20 33 0,0
18.09.2018 19:00:00 24,7 15,1 25,5 20,5 20,0 15 8 23 12 W 1016,7 20 60 0,0
18.09.2018 18:00:00 25,7 16,5 27,3 20,6 20,0 15 8 23 13 WNW 1016,5 20 44 0,0
18.09.2018 17:00:00 26,4 16,9 27,7 20,6 20,0 15 8 22 12 W 1016,6 20 29 0,0
18.09.2018 16:00:00 26,7 16,3 29,2 20,6 20,0 11 6 22 12 WSW 1016,7 20 22 0,0
18.09.2018 15:00:00 26,2 17,0 28,6 20,6 20,0 13 7 23 13 SW 1016,9 20 11 0,0
18.09.2018 14:00:00 25,8 16,9 28,8 20,6 20,0 9 5 22 12 SW 1017,2 20 38 0,0
18.09.2018 13:00:00 24,2 16,5 26,0 20,6 20,1 8 4 22 12 W 1017,3 20 39 0,0
18.09.2018 12:00:00 22,4 16,7 23,4 20,6 20,0 4 2 13 7 SW 1017,7 20 1 0,0
18.09.2018 11:00:00 21,3 17,5 21,5 20,5 20,0 6 3 12 7 SSW 1017,4 20 0 0,0
18.09.2018 10:00:00 20,0 17,2 19,4 20,5 20,1 9 5 15 8 S 1016,9 15 0 0,0
18.09.2018 09:00:00 18,7 16,7 18,1 20,5 20,0 12 6 19 11 SSE 1016,6 10 11 0,0
18.09.2018 08:00:00 18,0 16,3 17,8 20,6 20,1 8 4 10 6 SSE 1015,6 9 0 0,0
18.09.2018 07:00:00 18,0 16,7 17,5 20,5 20,1 7 4 11 6 S 1015,1 9 0 0,0
18.09.2018 06:00:00 17,6 16,8 16,9 20,5 20,1 7 4 17 9 S 1015,3 6 0 0,0
18.09.2018 05:00:00 16,9 16,1 15,6 20,5 20,1 4 2 7 4 S 1015,3 8 0 0,0
18.09.2018 04:00:00 16,5 15,4 14,2 20,5 20,1 4 2 14 8 SSW 1015,3 6 0 0,0
18.09.2018 03:00:00 16,7 14,7 15,0 20,5 20,1 11 6 16 9 WSW 1015,4 18 0 0,0
18.09.2018 02:00:00 18,1 14,6 16,5 20,5 20,1 8 4 11 6 WSW 1014,6 20 0 0,0
18.09.2018 01:00:00 19,4 14,4 14,8 20,4 20,1 7 4 9 5 WSW 1014,0 20 0 0,0
18.09.2018 00:00:00 19,6 13,5 15,1 20,5 20,1 3 2 7 4 SSW 1013,8 20 0 0,0
17.09.2018 23:00:00 21,4 14,5 16,3 20,4 20,1 4 2 8 4 SW 1013,7 20 0 0,0
17.09.2018 22:00:00 23,5 14,8 20,4 20,5 20,1 5 3 14 8 W 1013,2 20 0 0,0
17.09.2018 21:00:00 25,4 15,4 23,3 20,5 20,1 11 6 22 12 W 1012,8 20 0 0,0
17.09.2018 20:00:00 28,1 15,0 26,4 20,4 20,1 8 4 28 15 SW 1012,4 20 47 0,0
17.09.2018 19:00:00 29,9 14,8 30,4 20,5 20,1 18 10 34 18 SW 1012,5 20 60 0,0
17.09.2018 18:00:00 30,9 14,9 33,2 20,5 20,1 16 9 34 18 SSW 1012,8 20 60 0,0
17.09.2018 17:00:00 31,3 14,9 34,9 20,5 20,1 14 8 34 19 SSW 1013,3 20 60 0,0
17.09.2018 16:00:00 30,5 14,6 34,6 20,5 20,1 22 12 35 19 SSW 1014,1 20 60 0,0
17.09.2018 15:00:00 30,2 14,7 34,0 20,5 20,1 20 11 41 22 SSW 1014,7 20 60 0,0
17.09.2018 14:00:00 29,8 12,7 34,0 20,6 20,1 23 12 36 20 S 1015,5 20 60 0,0
17.09.2018 13:00:00 28,7 11,3 31,8 20,5 20,1 14 8 28 15 SSE 1016,2 20 60 0,0
17.09.2018 12:00:00 26,4 10,9 27,4 20,6 20,1 13 7 22 12 SSE 1017,1 20 60 0,0
17.09.2018 11:00:00 24,0 10,3 23,8 20,6 20,1 12 7 23 12 SSE 1017,7 20 60 0,0
17.09.2018 10:00:00 20,7 9,0 17,3 20,5 20,1 6 3 10 6 E 1018,2 20 60 0,0
17.09.2018 09:00:00 15,9 8,9 10,4 20,6 20,1 6 3 9 5 ENE 1018,5 20 45 0,0
17.09.2018 08:00:00 12,3 7,0 8,5 20,6 20,1 6 3 9 5 NE 1018,3 20 0 0,0
17.09.2018 07:00:00 12,1 7,4 8,3 20,6 20,1 7 4 10 5 ENE 1018,3 20 0 0,0
17.09.2018 06:00:00 12,6 7,5 8,7 20,6 20,1 5 3 7 4 NE 1018,7 20 0 0,0
17.09.2018 05:00:00 13,4 7,8 10,5 20,6 20,1 7 4 9 5 ENE 1018,9 20 0 0,0
17.09.2018 04:00:00 12,6 7,9 9,1 20,5 20,1 3 2 6 3 NNE 1019,5 20 0 0,0
17.09.2018 03:00:00 12,4 7,5 9,2 20,6 20,2 3 2 7 4 ESE 1019,6 20 0 0,0
17.09.2018 02:00:00 13,3 7,7 9,7 20,5 20,1 4 2 5 3 E 1020,2 20 0 0,0

tt = Température de l'air
td = dewpoint
tt 5cm = Température de l'air 5cm
tt -20cm = Température de l'air -20cm
tt -100cm = Température de l'air -100cm
ff = Vitesse du vent
fx = gusts
dd = Direction du vent
ppp = reduced air pressure
vv = visibility
sd = Ensoleillement
rr = Quantités de précipitations

stations d'obs. à proximité